Regional Weather Roundup
Issued by NWS

Home | Current Version | Previous Version | Text Only | Print | Product List | Glossary Off
Versions: 1 2 3 4 5 6 7 8 9 10 11 12 13 14 15 16 17 18 19 20 21 22 23 24 25 26 27 28 29 30 31 32 33 34 35 36 37 38 39 40 41 42 43 44 45 46 47 48 49

000
ASUS45 KSLC 221310
RWRUT

UTAH REGIONAL WEATHER ROUNDUP
NATIONAL WEATHER SERVICE SALT LAKE CITY UT
700 AM MDT MON SEP 22 2014

UTZ001>011-023>025-221400-

NORTHERN UTAH

CITY           SKY/WX    TMP DP  RH WIND       PRES   REMARKS
HILL AFB       MOCLDY    57  54  88 E7        30.17R
LOGAN          CLOUDY    54  54 100 CALM      30.15S
OGDEN          PTCLDY    58  55  90 S9        30.15R
PROVO AIRPORT  PTCLDY    55  50  82 SE5       30.19R
SALT LAKE CITY PTCLDY    61  56  83 W3        30.15R
VERNAL         CLOUDY    53  53 100 SW3       30.22F
WENDOVER       CLEAR     54  48  82 W5        30.15S
HEBER CITY     MOCLDY    50  48  93 CALM      30.22S
WEST JORDAN    CLEAR     59  54  82 S10       30.17R

$$

UTZ012>022-026-027-221400-

SOUTHERN UTAH

CITY           SKY/WX    TMP DP  RH WIND       PRES   REMARKS
BRYCE CANYON   CLEAR     42  41  96 W6        30.35S
CEDAR CITY     CLEAR     50  49  96 E3        30.23R
MILFORD        PTCLDY    55  52  89 S14       30.18S
MOAB/CYNLANDS  CLOUDY    60  57  89 W6        30.18R
PRICE          PTCLDY    54  51  90 N6        30.24S
ST GEORGE      MOSUNNY   64  55  72 SE3       30.10S
KANAB            N/A    N/A N/A N/A N5        30.25R

$$

REGIONAL REPORTS     COLORADO/ARIZONA

CITY           SKY/WX    TMP DP  RH WIND       PRES   REMARKS
CRAIG, CO      PTCLDY    50  47  89 SW3       30.27S
GRAND JUNCTION MOCLDY    60  56  86 SE6       30.19F
RIFLE          MOCLDY    57  55  93 CALM      30.24S
MONTROSE       MOCLDY    59  57  93 CALM      30.28F
CORTEZ         MOCLDY    58  57  97 CALM      30.29R
PAGE, AZ       CLEAR     65  56  72 CALM      30.16R
GRAND CANYON   CLEAR     38  37  97 NE3       30.32R
KINGMAN        CLEAR     63  41  44 S5        30.09R
FLAGSTAFF      PTCLDY    46  43  89 CALM      30.33S

$$

REGIONAL REPORTS    NEVADA/IDAHO/WYOMING

CITY           SKY/WX    TMP DP  RH WIND       PRES   REMARKS
LAS VEGAS, NV  CLEAR     75  53  46 S7        29.97R
ELY            PTCLDY    43  42  97 S7        30.24S
ELKO           PTCLDY    47  43  86 E3        30.16F
POCATELLO, ID  MOCLDY    57  55  93 CALM      30.14S
BURLEY         PTCLDY    53  50  89 SE6       30.11R
EVANSTON, WY   MOCLDY    47  45  93 CALM      30.27R
ROCK SPRINGS   FOG       47  47 100 CALM      30.27R VSB 1/4

$$


USA.gov is the U.S. government's official web portal to all federal, state and local government web resources and services.